User: anonymous   Login
Location: Prague
(50.0830°N, 14.4670°E)
Time: 03:32:30
(UTC+01:00)
Language:

NOAA 18 - Orbit

View from above orbital plane
View from above orbital plane
View from above satellite
View from above satellite

Ground track
Ground track

The orbit data is extracted from the following two-line orbital elements,

1 28654U 05018A   21339.71023802  .00000106  00000-0  81647-4 0  9997
2 28654  98.9751  45.0890 0014777 155.8927 204.2939 14.12663696852711
Epoch (UTC): 05 December 2021 17:02:44
Eccentricity: 0.0014777
inclination: 98.9751°
perigee height: 839 km
apogee height: 861 km
right ascension of ascending node: 45.0890°
argument of perigee: 155.8927°
revolutions per day: 14.12663696
mean anomaly at epoch: 204.2939°
orbit number at epoch: 85271

The dashed part of the orbit path shows where the satellite is in the earth's shadow,  

DLR